Time,TemperatureF,DewpointF,PressureIn,WindDirection,WindDirectionDegrees,WindSpeedMPH,WindSpeedGustMPH,Humidity,HourlyPrecipIn,Conditions,Clouds,dailyrainin,SoftwareType,DateUTC
2013-08-07 00:00:00,71.1,69.6,29.98,SSE,160,0.0,0.0,95,0.00,,,0.00,Wunderground v.1.15,2013-08-07 04:00:00,
2013-08-07 00:01:00,71.1,69.6,29.98,SSE,160,0.0,0.0,95,0.00,,,0.00,Wunderground v.1.15,2013-08-07 04:01:00,
2013-08-07 00:04:00,71.1,69.6,29.98,SSE,160,0.0,0.0,95,0.00,,,0.00,Wunderground v.1.15,2013-08-07 04:04:00,
2013-08-07 00:08:00,71.0,69.5,29.98,SSE,160,0.0,0.0,95,0.00,,,0.00,Wunderground v.1.15,2013-08-07 04:08:00,
2013-08-07 00:13:00,71.0,69.5,29.98,SSE,160,0.0,0.0,95,0.00,,,0.00,Wunderground v.1.15,2013-08-07 04:13:00,
2013-08-07 00:18:00,71.0,69.5,29.98,SSE,160,0.0,0.0,95,0.00,,,0.00,Wunderground v.1.15,2013-08-07 04:18:00,
2013-08-07 00:24:00,71.0,69.5,29.98,SSE,160,0.0,0.0,95,0.00,,,0.00,Wunderground v.1.15,2013-08-07 04:24:00,
2013-08-07 00:29:00,71.0,69.5,29.98,SSE,160,0.0,0.0,95,0.00,,,0.00,Wunderground v.1.15,2013-08-07 04:29:00,
2013-08-07 00:30:00,78.0,74.5,29.97,ESE,112,0.0,6.0,89,0.00,,,-99.99,WeatherLink 6.0.0,2013-08-07 04:30:00,
2013-08-07 00:34:00,71.0,69.5,29.98,SSE,160,0.0,0.0,95,0.00,,,0.00,Wunderground v.1.15,2013-08-07 04:34:00,
2013-08-07 00:40:00,71.0,69.5,29.98,SSE,160,1.0,1.0,95,0.00,,,0.00,Wunderground v.1.15,2013-08-07 04:40:00,
2013-08-07 00:45:00,70.9,69.4,29.98,SSE,160,0.0,1.0,95,0.00,,,0.00,Wunderground v.1.15,2013-08-07 04:45:00,
2013-08-07 00:50:00,70.9,69.7,29.98,SSE,160,0.0,0.0,96,0.00,,,0.00,Wunderground v.1.15,2013-08-07 04:50:00,
2013-08-07 00:56:00,70.9,69.7,29.98,SSE,160,0.0,0.0,96,0.00,,,0.00,Wunderground v.1.15,2013-08-07 04:56:00,
2013-08-07 01:00:00,78.1,74.3,29.96,ESE,112,0.0,4.0,88,0.00,,,-99.99,WeatherLink 6.0.0,2013-08-07 05:00:00,
2013-08-07 01:01:00,70.8,69.6,29.98,SSE,160,0.0,0.0,96,0.00,,,0.00,Wunderground v.1.15,2013-08-07 05:01:00,
2013-08-07 01:07:00,70.9,69.7,29.98,SSE,160,0.0,0.0,96,0.00,,,0.00,Wunderground v.1.15,2013-08-07 05:07:00,
2013-08-07 01:13:00,70.8,69.6,29.98,SSE,158,0.0,0.0,96,0.00,,,0.00,Wunderground v.1.15,2013-08-07 05:13:00,
2013-08-07 01:18:00,70.8,69.6,29.98,SSE,158,0.0,0.0,96,0.00,,,0.00,Wunderground v.1.15,2013-08-07 05:18:00,
2013-08-07 01:24:00,70.9,69.7,29.97,SSE,158,0.0,0.0,96,0.00,,,0.00,Wunderground v.1.15,2013-08-07 05:24:00,
2013-08-07 01:29:00,70.8,69.6,29.97,SSE,158,0.0,0.0,96,0.00,,,0.00,Wunderground v.1.15,2013-08-07 05:29:00,
2013-08-07 01:30:00,77.0,73.5,29.96,SE,135,0.0,3.0,89,0.00,,,-99.99,WeatherLink 6.0.0,2013-08-07 05:30:00,
2013-08-07 01:35:00,70.8,69.6,29.97,SSE,157,0.0,0.0,96,0.00,,,0.00,Wunderground v.1.15,2013-08-07 05:35:00,
2013-08-07 01:40:00,70.8,69.6,29.97,SSE,157,0.0,0.0,96,0.00,,,0.00,Wunderground v.1.15,2013-08-07 05:40:00,
2013-08-07 01:46:00,70.8,69.6,29.96,SSE,157,0.0,0.0,96,0.00,,,0.00,Wunderground v.1.15,2013-08-07 05:46:00,
2013-08-07 01:51:00,70.8,69.6,29.96,SSE,158,0.0,0.0,96,0.00,,,0.00,Wunderground v.1.15,2013-08-07 05:51:00,
2013-08-07 01:57:00,70.8,69.6,29.96,SSE,157,0.0,0.0,96,0.00,,,0.00,Wunderground v.1.15,2013-08-07 05:57:00,
2013-08-07 02:00:00,77.4,73.2,29.96,ESE,112,0.0,5.0,87,0.00,,,-99.99,WeatherLink 6.0.0,2013-08-07 06:00:00,
2013-08-07 02:02:00,70.8,69.6,29.96,SSE,158,0.0,0.0,96,0.00,,,0.00,Wunderground v.1.15,2013-08-07 06:02:00,
2013-08-07 02:07:00,70.8,69.6,29.96,SSE,158,0.0,0.0,96,0.00,,,0.00,Wunderground v.1.15,2013-08-07 06:07:00,
2013-08-07 02:12:00,70.7,69.5,29.96,SSE,157,0.0,0.0,96,0.00,,,0.00,Wunderground v.1.15,2013-08-07 06:12:00,
2013-08-07 02:17:00,70.6,69.4,29.96,SSE,158,0.0,0.0,96,0.00,,,0.00,Wunderground v.1.15,2013-08-07 06:17:00,
2013-08-07 02:22:00,70.5,69.3,29.96,SSE,157,0.0,0.0,96,0.00,,,0.00,Wunderground v.1.15,2013-08-07 06:22:00,
2013-08-07 02:27:00,70.4,69.2,29.96,SSE,158,0.0,0.0,96,0.00,,,0.00,Wunderground v.1.15,2013-08-07 06:27:00,
2013-08-07 02:30:00,78.2,73.7,29.95,SE,135,0.0,4.0,86,0.00,,,-99.99,WeatherLink 6.0.0,2013-08-07 06:30:00,
2013-08-07 02:32:00,70.3,69.1,29.96,SSE,158,0.0,0.0,96,0.00,,,0.00,Wunderground v.1.15,2013-08-07 06:32:00,
2013-08-07 02:37:00,70.2,69.0,29.96,SSE,158,0.0,0.0,96,0.00,,,0.00,Wunderground v.1.15,2013-08-07 06:37:00,
2013-08-07 02:42:00,70.1,69.2,29.96,SSE,158,0.0,0.0,97,0.00,,,0.00,Wunderground v.1.15,2013-08-07 06:42:00,
2013-08-07 02:47:00,70.0,69.1,29.96,SSE,158,0.0,0.0,97,0.00,,,0.00,Wunderground v.1.15,2013-08-07 06:47:00,
2013-08-07 02:52:00,70.0,69.1,29.95,SSE,158,0.0,1.0,97,0.00,,,0.00,Wunderground v.1.15,2013-08-07 06:52:00,
2013-08-07 02:57:00,70.0,69.1,29.95,SSE,155,0.0,1.0,97,0.00,,,0.00,Wunderground v.1.15,2013-08-07 06:57:00,
2013-08-07 03:00:00,77.8,73.6,29.95,SE,135,0.0,1.0,87,0.00,,,-99.99,WeatherLink 6.0.0,2013-08-07 07:00:00,
2013-08-07 03:02:00,70.0,69.1,29.96,SSE,153,0.0,2.0,97,0.00,,,0.00,Wunderground v.1.15,2013-08-07 07:02:00,
2013-08-07 03:07:00,70.0,69.1,29.95,SE,137,1.0,2.0,97,0.00,,,0.00,Wunderground v.1.15,2013-08-07 07:07:00,
2013-08-07 03:12:00,70.0,69.1,29.95,SE,137,0.0,1.0,97,0.00,,,0.00,Wunderground v.1.15,2013-08-07 07:12:00,
2013-08-07 03:17:00,70.0,69.1,29.95,SSE,161,0.0,3.0,97,0.00,,,0.00,Wunderground v.1.15,2013-08-07 07:17:00,
2013-08-07 03:22:00,70.0,69.1,29.95,SSE,159,0.0,0.0,97,0.00,,,0.00,Wunderground v.1.15,2013-08-07 07:22:00,
2013-08-07 03:27:00,70.0,69.1,29.95,SSE,160,0.0,1.0,97,0.00,,,0.00,Wunderground v.1.15,2013-08-07 07:27:00,
2013-08-07 03:30:00,76.5,73.7,29.95,SE,135,0.0,1.0,91,0.01,,,-99.99,WeatherLink 6.0.0,2013-08-07 07:30:00,
2013-08-07 03:32:00,70.0,69.1,29.95,SSE,160,0.0,0.0,97,0.00,,,0.00,Wunderground v.1.15,2013-08-07 07:32:00,
2013-08-07 03:37:00,70.0,69.1,29.95,SSE,160,0.0,1.0,97,0.00,,,0.00,Wunderground v.1.15,2013-08-07 07:37:00,
2013-08-07 03:42:00,70.0,69.1,29.96,SSE,160,0.0,1.0,97,0.00,,,0.00,Wunderground v.1.15,2013-08-07 07:42:00,
2013-08-07 03:47:00,70.1,69.2,29.96,SSE,160,0.0,1.0,97,0.00,,,0.00,Wunderground v.1.15,2013-08-07 07:47:00,
2013-08-07 03:52:00,70.0,69.1,29.96,SSE,159,0.0,3.0,97,0.00,,,0.00,Wunderground v.1.15,2013-08-07 07:52:00,
2013-08-07 03:57:00,70.1,69.5,29.96,SSE,159,0.0,3.0,98,0.00,,,0.00,Wunderground v.1.15,2013-08-07 07:57:00,
2013-08-07 04:00:00,75.3,73.5,29.95,SE,135,0.0,1.0,94,0.01,,,-99.99,WeatherLink 6.0.0,2013-08-07 08:00:00,
2013-08-07 04:02:00,70.1,69.5,29.96,SSE,153,0.0,1.0,98,0.00,,,0.00,Wunderground v.1.15,2013-08-07 08:02:00,
2013-08-07 04:07:00,70.1,69.5,29.96,ESE,119,0.0,4.0,98,0.00,,,0.00,Wunderground v.1.15,2013-08-07 08:07:00,
2013-08-07 04:12:00,70.1,69.5,29.96,ESE,121,1.0,2.0,98,0.00,,,0.00,Wunderground v.1.15,2013-08-07 08:12:00,
2013-08-07 04:17:00,70.1,69.5,29.96,ESE,121,0.0,2.0,98,0.00,,,0.00,Wunderground v.1.15,2013-08-07 08:17:00,
2013-08-07 04:22:00,70.1,69.5,29.96,ESE,110,0.0,2.0,98,0.00,,,0.00,Wunderground v.1.15,2013-08-07 08:22:00,
2013-08-07 04:27:00,70.1,69.5,29.96,ESE,110,0.0,2.0,98,0.00,,,0.00,Wunderground v.1.15,2013-08-07 08:27:00,
2013-08-07 04:30:00,74.7,73.2,29.96,North,-999,0.0,0.0,95,0.00,,,-99.99,WeatherLink 6.0.0,2013-08-07 08:30:00,
2013-08-07 04:32:00,70.1,69.5,29.96,ESE,110,0.0,0.0,98,0.00,,,0.00,Wunderground v.1.15,2013-08-07 08:32:00,
2013-08-07 04:38:00,70.2,69.6,29.96,ESE,109,2.0,2.0,98,0.00,,,0.00,Wunderground v.1.15,2013-08-07 08:38:00,
2013-08-07 04:43:00,70.1,69.5,29.96,SE,140,0.0,2.0,98,0.00,,,0.00,Wunderground v.1.15,2013-08-07 08:43:00,
2013-08-07 04:48:00,70.1,69.5,29.96,SE,126,0.0,3.0,98,0.00,,,0.00,Wunderground v.1.15,2013-08-07 08:48:00,
2013-08-07 04:53:00,70.1,69.5,29.96,ESE,121,0.0,3.0,98,0.00,,,0.00,Wunderground v.1.15,2013-08-07 08:53:00,
2013-08-07 04:58:00,70.1,69.5,29.96,ESE,110,0.0,3.0,98,0.00,,,0.00,Wunderground v.1.15,2013-08-07 08:58:00,
2013-08-07 05:00:00,74.0,72.5,29.95,North,-999,0.0,0.0,95,0.00,,,-99.99,WeatherLink 6.0.0,2013-08-07 09:00:00,
2013-08-07 05:03:00,70.1,69.5,29.96,SE,130,0.0,4.0,98,0.00,,,0.00,Wunderground v.1.15,2013-08-07 09:03:00,
2013-08-07 05:08:00,70.1,69.5,29.96,SE,130,0.0,4.0,98,0.00,,,0.00,Wunderground v.1.15,2013-08-07 09:08:00,
2013-08-07 05:13:00,70.0,69.4,29.96,ESE,102,0.0,3.0,98,0.00,,,0.00,Wunderground v.1.15,2013-08-07 09:13:00,
2013-08-07 05:18:00,69.9,69.3,29.96,East,94,0.0,3.0,98,0.00,,,0.00,Wunderground v.1.15,2013-08-07 09:18:00,
2013-08-07 05:23:00,69.9,69.3,29.96,SE,145,0.0,4.0,98,0.00,,,0.00,Wunderground v.1.15,2013-08-07 09:23:00,
2013-08-07 05:29:00,69.9,69.3,29.96,SSE,161,0.0,4.0,98,0.00,,,0.00,Wunderground v.1.15,2013-08-07 09:29:00,
2013-08-07 05:30:00,73.5,72.3,29.95,North,-999,0.0,0.0,96,0.00,,,-99.99,WeatherLink 6.0.0,2013-08-07 09:30:00,
2013-08-07 05:34:00,69.9,69.3,29.97,SSE,161,0.0,1.0,98,0.00,,,0.00,Wunderground v.1.15,2013-08-07 09:34:00,
2013-08-07 05:39:00,70.0,69.4,29.97,SSE,161,0.0,1.0,98,0.00,,,0.00,Wunderground v.1.15,2013-08-07 09:39:00,
2013-08-07 05:44:00,70.0,69.4,29.97,SSE,161,0.0,1.0,98,0.00,,,0.00,Wunderground v.1.15,2013-08-07 09:44:00,
2013-08-07 05:49:00,69.9,69.3,29.97,SSE,157,0.0,3.0,98,0.00,,,0.00,Wunderground v.1.15,2013-08-07 09:49:00,
2013-08-07 05:54:00,69.9,69.3,29.97,SE,146,2.0,4.0,98,0.00,,,0.00,Wunderground v.1.15,2013-08-07 09:54:00,
2013-08-07 05:59:00,69.8,69.5,29.97,SE,145,0.0,4.0,99,0.00,,,0.01,Wunderground v.1.15,2013-08-07 09:59:00,
2013-08-07 06:00:00,72.9,71.7,29.95,North,-999,0.0,0.0,96,0.00,,,-99.99,WeatherLink 6.0.0,2013-08-07 10:00:00,
2013-08-07 06:04:00,69.7,69.1,29.97,SW,219,0.0,3.0,98,0.00,,,0.01,Wunderground v.1.15,2013-08-07 10:04:00,
2013-08-07 06:09:00,69.6,69.0,29.97,SSW,192,0.0,3.0,98,0.00,,,0.01,Wunderground v.1.15,2013-08-07 10:09:00,
2013-08-07 06:14:00,69.5,68.9,29.97,South,190,0.0,2.0,98,0.00,,,0.01,Wunderground v.1.15,2013-08-07 10:14:00,
2013-08-07 06:19:00,69.5,68.9,29.97,South,188,0.0,2.0,98,0.00,,,0.01,Wunderground v.1.15,2013-08-07 10:19:00,
2013-08-07 06:24:00,69.4,68.8,29.97,SSE,165,1.0,1.0,98,0.00,,,0.01,Wunderground v.1.15,2013-08-07 10:24:00,
2013-08-07 06:29:00,69.3,68.7,29.97,SE,133,1.0,3.0,98,0.00,,,0.01,Wunderground v.1.15,2013-08-07 10:29:00,
2013-08-07 06:30:00,72.7,71.8,29.96,North,-999,0.0,0.0,97,0.00,,,-99.99,WeatherLink 6.0.0,2013-08-07 10:30:00,
2013-08-07 06:34:00,69.3,68.7,29.98,ESE,122,0.0,2.0,98,0.00,,,0.01,Wunderground v.1.15,2013-08-07 10:34:00,
2013-08-07 06:39:00,69.2,68.6,29.98,ESE,109,0.0,5.0,98,0.00,,,0.01,Wunderground v.1.15,2013-08-07 10:39:00,
2013-08-07 06:44:00,69.2,68.6,29.98,South,187,0.0,3.0,98,0.00,,,0.01,Wunderground v.1.15,2013-08-07 10:44:00,
2013-08-07 06:49:00,69.2,68.6,29.98,South,171,0.0,5.0,98,0.00,,,0.01,Wunderground v.1.15,2013-08-07 10:49:00,
2013-08-07 06:54:00,69.2,68.6,29.98,SE,136,0.0,4.0,98,0.00,,,0.01,Wunderground v.1.15,2013-08-07 10:54:00,
2013-08-07 06:59:00,69.2,68.9,29.98,SSE,165,0.0,4.0,99,0.00,,,0.01,Wunderground v.1.15,2013-08-07 10:59:00,
2013-08-07 07:00:00,72.4,71.5,29.97,North,-999,0.0,0.0,97,0.00,,,-99.99,WeatherLink 6.0.0,2013-08-07 11:00:00,
2013-08-07 07:04:00,69.2,68.9,29.98,SSE,157,0.0,1.0,99,0.00,,,0.01,Wunderground v.1.15,2013-08-07 11:04:00,
2013-08-07 07:09:00,69.2,68.9,29.98,SSE,158,0.0,3.0,99,0.00,,,0.01,Wunderground v.1.15,2013-08-07 11:09:00,
2013-08-07 07:14:00,69.3,69.0,29.99,SSE,165,0.0,1.0,99,0.00,,,0.01,Wunderground v.1.15,2013-08-07 11:14:00,
2013-08-07 07:19:00,69.3,69.0,29.99,SSE,164,1.0,1.0,99,0.00,,,0.01,Wunderground v.1.15,2013-08-07 11:19:00,
2013-08-07 07:25:00,69.3,69.0,29.99,SSE,155,0.0,3.0,99,0.00,,,0.01,Wunderground v.1.15,2013-08-07 11:25:00,
2013-08-07 07:30:00,69.3,69.0,29.98,SSE,147,0.0,0.0,99,0.00,,,0.01,Wunderground v.1.15,2013-08-07 11:30:00,
2013-08-07 07:35:00,69.3,69.0,29.98,SE,146,0.0,2.0,99,0.00,,,0.01,Wunderground v.1.15,2013-08-07 11:35:00,
2013-08-07 07:40:00,69.4,69.1,29.99,SSE,148,0.0,0.0,99,0.00,,,0.01,Wunderground v.1.15,2013-08-07 11:40:00,
2013-08-07 07:45:00,69.4,69.1,29.99,SSE,148,0.0,0.0,99,0.00,,,0.01,Wunderground v.1.15,2013-08-07 11:45:00,
2013-08-07 07:50:00,69.4,69.1,29.99,SSE,148,0.0,0.0,99,0.00,,,0.01,Wunderground v.1.15,2013-08-07 11:50:00,
2013-08-07 07:55:00,69.5,69.2,29.99,SE,146,0.0,0.0,99,0.00,,,0.01,Wunderground v.1.15,2013-08-07 11:55:00,
2013-08-07 08:00:00,69.5,69.2,29.99,SSE,147,0.0,0.0,99,0.00,,,0.01,Wunderground v.1.15,2013-08-07 12:00:00,
2013-08-07 08:05:00,69.6,69.3,29.99,SSE,147,0.0,1.0,99,0.00,,,0.01,Wunderground v.1.15,2013-08-07 12:05:00,
2013-08-07 08:10:00,69.5,69.2,30.00,South,170,0.0,0.0,99,0.00,,,0.01,Wunderground v.1.15,2013-08-07 12:10:00,
2013-08-07 08:15:00,69.5,69.2,30.00,South,170,0.0,0.0,99,0.00,,,0.01,Wunderground v.1.15,2013-08-07 12:15:00,
2013-08-07 08:20:00,69.5,69.2,30.00,South,169,0.0,0.0,99,0.00,,,0.01,Wunderground v.1.15,2013-08-07 12:20:00,
2013-08-07 08:25:00,69.6,69.3,30.00,South,169,0.0,0.0,99,0.00,,,0.01,Wunderground v.1.15,2013-08-07 12:25:00,
2013-08-07 08:30:00,72.0,71.4,29.98,North,-999,0.0,0.0,98,0.00,,,-99.99,WeatherLink 6.0.0,2013-08-07 12:30:00,
2013-08-07 08:31:00,69.7,69.4,30.00,South,170,0.0,0.0,99,0.00,,,0.01,Wunderground v.1.15,2013-08-07 12:31:00,
2013-08-07 08:36:00,69.6,69.3,30.00,South,169,0.0,1.0,99,0.00,,,0.01,Wunderground v.1.15,2013-08-07 12:36:00,
2013-08-07 08:41:00,69.7,69.4,30.00,South,169,0.0,0.0,99,0.00,,,0.01,Wunderground v.1.15,2013-08-07 12:41:00,
2013-08-07 08:46:00,69.8,69.5,30.00,South,170,0.0,1.0,99,0.00,,,0.01,Wunderground v.1.15,2013-08-07 12:46:00,
2013-08-07 08:51:00,69.9,69.6,30.00,South,170,0.0,0.0,99,0.00,,,0.01,Wunderground v.1.15,2013-08-07 12:51:00,
2013-08-07 08:56:00,69.9,69.6,30.00,South,170,0.0,1.0,99,0.00,,,0.01,Wunderground v.1.15,2013-08-07 12:56:00,
2013-08-07 09:00:00,72.0,71.4,29.98,North,-999,0.0,0.0,98,0.00,,,-99.99,WeatherLink 6.0.0,2013-08-07 13:00:00,
2013-08-07 09:01:00,70.0,69.7,30.00,South,169,0.0,0.0,99,0.00,,,0.01,Wunderground v.1.15,2013-08-07 13:01:00,
2013-08-07 09:06:00,70.1,69.8,30.00,SSE,157,0.0,2.0,99,0.00,,,0.01,Wunderground v.1.15,2013-08-07 13:06:00,
2013-08-07 09:11:00,70.0,69.7,30.00,SSE,157,0.0,1.0,99,0.00,,,0.01,Wunderground v.1.15,2013-08-07 13:11:00,
2013-08-07 09:16:00,70.1,69.8,30.00,SSE,156,0.0,1.0,99,0.00,,,0.01,Wunderground v.1.15,2013-08-07 13:16:00,
2013-08-07 09:21:00,70.2,69.9,30.00,SSE,157,0.0,0.0,99,0.00,,,0.01,Wunderground v.1.15,2013-08-07 13:21:00,
2013-08-07 09:26:00,70.2,69.9,30.00,SSE,148,0.0,2.0,99,0.00,,,0.01,Wunderground v.1.15,2013-08-07 13:26:00,
2013-08-07 09:30:00,72.0,71.4,29.98,North,-999,0.0,0.0,98,0.00,,,-99.99,WeatherLink 6.0.0,2013-08-07 13:30:00,
2013-08-07 09:31:00,70.2,69.9,30.00,SSE,148,0.0,0.0,99,0.00,,,0.01,Wunderground v.1.15,2013-08-07 13:31:00,
2013-08-07 09:36:00,70.3,70.0,30.00,ESE,107,1.0,3.0,99,0.00,,,0.02,Wunderground v.1.15,2013-08-07 13:36:00,
2013-08-07 09:41:00,70.3,70.0,30.00,ESE,107,0.0,2.0,99,0.00,,,0.02,Wunderground v.1.15,2013-08-07 13:41:00,
2013-08-07 09:46:00,70.4,70.1,30.00,SE,127,0.0,3.0,99,0.00,,,0.02,Wunderground v.1.15,2013-08-07 13:46:00,
2013-08-07 09:51:00,70.7,70.4,30.00,SE,133,0.0,3.0,99,0.00,,,0.02,Wunderground v.1.15,2013-08-07 13:51:00,
2013-08-07 09:56:00,70.6,70.3,30.00,SE,133,0.0,3.0,99,0.00,,,0.02,Wunderground v.1.15,2013-08-07 13:56:00,
2013-08-07 10:00:00,71.6,71.0,29.97,North,-999,0.0,0.0,98,0.00,,,-99.99,WeatherLink 6.0.0,2013-08-07 14:00:00,
2013-08-07 10:01:00,70.8,70.5,30.00,SE,133,0.0,0.0,99,0.00,,,0.02,Wunderground v.1.15,2013-08-07 14:01:00,
2013-08-07 10:06:00,71.0,70.7,30.00,SE,133,0.0,1.0,99,0.00,,,0.02,Wunderground v.1.15,2013-08-07 14:06:00,
2013-08-07 10:11:00,71.0,70.7,30.01,SE,133,0.0,0.0,99,0.00,,,0.02,Wunderground v.1.15,2013-08-07 14:11:00,
2013-08-07 10:16:00,71.0,70.7,30.01,SE,133,0.0,1.0,99,0.00,,,0.02,Wunderground v.1.15,2013-08-07 14:16:00,
2013-08-07 10:21:00,71.1,70.8,30.01,SE,133,0.0,0.0,99,0.00,,,0.02,Wunderground v.1.15,2013-08-07 14:21:00,
2013-08-07 10:26:00,70.9,70.6,30.01,SE,134,0.0,3.0,99,0.00,,,0.02,Wunderground v.1.15,2013-08-07 14:26:00,
2013-08-07 10:30:00,71.6,71.0,29.96,North,-999,0.0,0.0,98,0.00,,,-99.99,WeatherLink 6.0.0,2013-08-07 14:30:00,
2013-08-07 10:31:00,70.9,70.6,30.01,SE,136,0.0,2.0,99,0.00,,,0.02,Wunderground v.1.15,2013-08-07 14:31:00,
2013-08-07 10:36:00,70.8,70.5,30.01,SE,142,0.0,4.0,99,0.00,,,0.02,Wunderground v.1.15,2013-08-07 14:36:00,
2013-08-07 10:41:00,70.9,70.6,30.01,SE,142,2.0,2.0,99,0.00,,,0.02,Wunderground v.1.15,2013-08-07 14:41:00,
2013-08-07 10:46:00,71.0,70.7,30.01,South,171,0.0,4.0,99,0.00,,,0.02,Wunderground v.1.15,2013-08-07 14:46:00,
2013-08-07 10:52:00,71.3,71.0,30.01,East,93,0.0,3.0,99,0.00,,,0.02,Wunderground v.1.15,2013-08-07 14:52:00,
2013-08-07 10:57:00,71.4,71.1,30.01,East,92,0.0,3.0,99,0.00,,,0.02,Wunderground v.1.15,2013-08-07 14:57:00,
2013-08-07 11:00:00,71.7,71.1,29.96,North,-999,0.0,0.0,98,0.00,,,-99.99,WeatherLink 6.0.0,2013-08-07 15:00:00,
2013-08-07 11:02:00,71.5,71.2,30.01,East,92,0.0,0.0,99,0.00,,,0.02,Wunderground v.1.15,2013-08-07 15:02:00,
2013-08-07 11:06:00,71.5,71.2,30.01,East,93,0.0,1.0,99,0.00,,,0.02,Wunderground v.1.15,2013-08-07 15:06:00,
2013-08-07 11:11:00,71.5,71.2,30.01,SE,138,0.0,5.0,99,0.00,,,0.02,Wunderground v.1.15,2013-08-07 15:11:00,
2013-08-07 11:17:00,71.5,71.2,30.01,SE,136,0.0,5.0,99,0.00,,,0.02,Wunderground v.1.15,2013-08-07 15:17:00,
2013-08-07 11:22:00,71.7,71.4,30.01,SSE,158,0.0,2.0,99,0.00,,,0.02,Wunderground v.1.15,2013-08-07 15:22:00,
2013-08-07 11:26:00,71.8,71.5,30.01,SE,128,0.0,5.0,99,0.00,,,0.02,Wunderground v.1.15,2013-08-07 15:26:00,
2013-08-07 11:30:00,71.7,71.1,29.96,SE,135,0.0,1.0,98,0.00,,,-99.99,WeatherLink 6.0.0,2013-08-07 15:30:00,
2013-08-07 11:32:00,72.1,71.8,30.01,South,173,0.0,1.0,99,0.00,,,0.02,Wunderground v.1.15,2013-08-07 15:32:00,
2013-08-07 11:37:00,72.3,71.7,30.01,SE,137,0.0,5.0,98,0.00,,,0.02,Wunderground v.1.15,2013-08-07 15:37:00,
2013-08-07 11:42:00,72.5,72.2,30.01,East,98,0.0,3.0,99,0.00,,,0.02,Wunderground v.1.15,2013-08-07 15:42:00,
2013-08-07 11:47:00,72.4,71.8,30.01,SE,128,0.0,6.0,98,0.00,,,0.02,Wunderground v.1.15,2013-08-07 15:47:00,
2013-08-07 11:52:00,72.5,71.9,30.01,SSE,161,0.0,3.0,98,0.00,,,0.02,Wunderground v.1.15,2013-08-07 15:52:00,
2013-08-07 11:57:00,72.6,72.0,30.01,SE,141,0.0,4.0,98,0.00,,,0.02,Wunderground v.1.15,2013-08-07 15:57:00,
2013-08-07 12:00:00,71.6,70.7,29.95,SE,135,0.0,2.0,97,0.00,,,-99.99,WeatherLink 6.0.0,2013-08-07 16:00:00,
2013-08-07 12:02:00,72.8,71.9,30.01,SE,134,3.0,6.0,97,0.00,,,0.02,Wunderground v.1.15,2013-08-07 16:02:00,
2013-08-07 12:07:00,73.1,72.5,30.01,SSE,157,2.0,6.0,98,0.00,,,0.02,Wunderground v.1.15,2013-08-07 16:07:00,
2013-08-07 12:12:00,73.3,72.4,30.01,ENE,63,0.0,3.0,97,0.00,,,0.02,Wunderground v.1.15,2013-08-07 16:12:00,
2013-08-07 12:17:00,73.6,72.7,30.01,ENE,61,0.0,3.0,97,0.00,,,0.02,Wunderground v.1.15,2013-08-07 16:17:00,
2013-08-07 12:22:00,73.8,72.6,30.01,NE,34,0.0,7.0,96,0.00,,,0.02,Wunderground v.1.15,2013-08-07 16:22:00,
2013-08-07 12:27:00,73.6,72.1,30.01,ESE,110,0.0,7.0,95,0.00,,,0.02,Wunderground v.1.15,2013-08-07 16:27:00,
2013-08-07 12:30:00,71.6,70.7,29.95,SE,135,0.0,1.0,97,0.00,,,-99.99,WeatherLink 6.0.0,2013-08-07 16:30:00,
2013-08-07 12:32:00,73.6,72.4,30.01,ESE,122,1.0,5.0,96,0.00,,,0.02,Wunderground v.1.15,2013-08-07 16:32:00,
2013-08-07 12:37:00,73.7,72.2,30.01,ENE,78,0.0,5.0,95,0.00,,,0.02,Wunderground v.1.15,2013-08-07 16:37:00,
2013-08-07 12:42:00,74.0,72.5,30.00,SE,130,0.0,2.0,95,0.00,,,0.02,Wunderground v.1.15,2013-08-07 16:42:00,
2013-08-07 12:47:00,74.3,72.8,30.00,SE,136,0.0,4.0,95,0.00,,,0.02,Wunderground v.1.15,2013-08-07 16:47:00,
2013-08-07 12:52:00,74.6,72.8,30.00,SSW,195,0.0,9.0,94,0.00,,,0.02,Wunderground v.1.15,2013-08-07 16:52:00,
2013-08-07 12:57:00,74.8,73.0,30.00,SE,128,0.0,9.0,94,0.00,,,0.02,Wunderground v.1.15,2013-08-07 16:57:00,
2013-08-07 13:00:00,71.5,70.6,29.95,North,-999,0.0,0.0,97,0.00,,,-99.99,WeatherLink 6.0.0,2013-08-07 17:00:00,
2013-08-07 13:02:00,75.0,73.2,30.00,ESE,115,0.0,5.0,94,0.00,,,0.02,Wunderground v.1.15,2013-08-07 17:02:00,
2013-08-07 13:07:00,75.1,72.9,30.00,ESE,106,0.0,6.0,93,0.00,,,0.02,Wunderground v.1.15,2013-08-07 17:07:00,
2013-08-07 13:12:00,75.1,72.9,29.99,ESE,109,3.0,5.0,93,0.00,,,0.02,Wunderground v.1.15,2013-08-07 17:12:00,
2013-08-07 13:17:00,75.4,73.2,29.99,ESE,117,0.0,5.0,93,0.00,,,0.02,Wunderground v.1.15,2013-08-07 17:17:00,
2013-08-07 13:22:00,75.9,73.1,29.99,SE,133,2.0,7.0,91,0.00,,,0.02,Wunderground v.1.15,2013-08-07 17:22:00,
2013-08-07 13:27:00,76.1,73.3,30.00,SE,128,0.0,7.0,91,0.00,,,0.02,Wunderground v.1.15,2013-08-07 17:27:00,
2013-08-07 13:30:00,71.3,70.4,29.96,North,-999,0.0,0.0,97,0.00,,,-99.99,WeatherLink 6.0.0,2013-08-07 17:30:00,
2013-08-07 13:32:00,76.5,73.3,29.99,ESE,103,0.0,4.0,90,0.00,,,0.02,Wunderground v.1.15,2013-08-07 17:32:00,
2013-08-07 13:37:00,76.7,73.2,29.99,ESE,123,3.0,5.0,89,0.00,,,0.02,Wunderground v.1.15,2013-08-07 17:37:00,
2013-08-07 13:42:00,76.7,72.9,29.99,SE,130,0.0,7.0,88,0.00,,,0.02,Wunderground v.1.15,2013-08-07 17:42:00,
2013-08-07 13:47:00,77.0,73.5,29.99,ESE,112,0.0,7.0,89,0.00,,,0.02,Wunderground v.1.15,2013-08-07 17:47:00,
2013-08-07 13:52:00,77.6,73.8,29.99,SSE,151,2.0,5.0,88,0.00,,,0.02,Wunderground v.1.15,2013-08-07 17:52:00,
2013-08-07 13:57:00,78.0,74.2,29.99,SE,130,0.0,6.0,88,0.00,,,0.02,Wunderground v.1.15,2013-08-07 17:57:00,
2013-08-07 14:00:00,71.2,70.6,29.95,SE,135,0.0,1.0,98,0.00,,,-99.99,WeatherLink 6.0.0,2013-08-07 18:00:00,
2013-08-07 14:02:00,78.6,74.1,29.99,ENE,71,0.0,1.0,86,0.00,,,0.02,Wunderground v.1.15,2013-08-07 18:02:00,
2013-08-07 14:07:00,78.7,73.8,29.98,ESE,105,1.0,4.0,85,0.00,,,0.02,Wunderground v.1.15,2013-08-07 18:07:00,
2013-08-07 14:12:00,78.7,73.8,29.98,South,173,2.0,6.0,85,0.00,,,0.02,Wunderground v.1.15,2013-08-07 18:12:00,
2013-08-07 14:18:00,78.4,73.5,29.98,ENE,76,0.0,6.0,85,0.00,,,0.02,Wunderground v.1.15,2013-08-07 18:18:00,
2013-08-07 14:23:00,78.3,73.1,29.98,East,82,1.0,7.0,84,0.00,,,0.02,Wunderground v.1.15,2013-08-07 18:23:00,
2013-08-07 14:28:00,78.5,73.6,29.98,SE,146,2.0,7.0,85,0.00,,,0.02,Wunderground v.1.15,2013-08-07 18:28:00,
2013-08-07 14:30:00,71.0,70.4,29.95,SE,135,0.0,2.0,98,0.00,,,-99.99,WeatherLink 6.0.0,2013-08-07 18:30:00,
2013-08-07 14:33:00,78.6,73.4,29.98,SE,130,0.0,5.0,84,0.00,,,0.02,Wunderground v.1.15,2013-08-07 18:33:00,
2013-08-07 14:38:00,78.9,74.0,29.98,ESE,123,0.0,5.0,85,0.00,,,0.02,Wunderground v.1.15,2013-08-07 18:38:00,
2013-08-07 14:43:00,79.3,74.0,29.98,SE,144,3.0,4.0,84,0.00,,,0.02,Wunderground v.1.15,2013-08-07 18:43:00,
2013-08-07 14:48:00,79.0,73.7,29.98,West,281,1.0,4.0,84,0.00,,,0.02,Wunderground v.1.15,2013-08-07 18:48:00,
2013-08-07 14:53:00,78.9,74.0,29.98,SSE,157,0.0,1.0,85,0.00,,,0.02,Wunderground v.1.15,2013-08-07 18:53:00,
2013-08-07 14:58:00,79.0,73.4,29.97,ENE,57,0.0,4.0,83,0.00,,,0.02,Wunderground v.1.15,2013-08-07 18:58:00,
2013-08-07 15:00:00,70.6,70.0,29.95,North,-999,0.0,0.0,98,0.00,,,-99.99,WeatherLink 6.0.0,2013-08-07 19:00:00,
2013-08-07 15:03:00,79.0,73.4,29.98,SE,124,1.0,4.0,83,0.00,,,0.02,Wunderground v.1.15,2013-08-07 19:03:00,
2013-08-07 15:08:00,79.2,73.2,29.98,ESE,123,0.0,4.0,82,0.00,,,0.02,Wunderground v.1.15,2013-08-07 19:08:00,
2013-08-07 15:13:00,79.4,73.1,29.97,South,173,0.0,2.0,81,0.00,,,0.02,Wunderground v.1.15,2013-08-07 19:13:00,
2013-08-07 15:18:00,79.2,72.9,29.97,SE,145,1.0,6.0,81,0.00,,,0.02,Wunderground v.1.15,2013-08-07 19:18:00,
2013-08-07 15:23:00,78.9,73.7,29.97,East,99,0.0,5.0,84,0.00,,,0.00,Wunderground v.1.15,2013-08-07 19:23:00,
2013-08-07 15:28:00,79.0,73.7,29.97,SE,125,1.0,5.0,84,0.00,,,0.00,Wunderground v.1.15,2013-08-07 19:28:00,
2013-08-07 15:30:00,70.3,69.7,29.95,SE,135,0.0,2.0,98,0.00,,,-99.99,WeatherLink 6.0.0,2013-08-07 19:30:00,
2013-08-07 15:33:00,78.7,74.8,29.97,SE,125,0.0,1.0,88,0.00,,,0.00,Wunderground v.1.15,2013-08-07 19:33:00,
2013-08-07 15:38:00,78.3,74.8,29.97,SE,144,1.0,1.0,89,0.00,,,0.00,Wunderground v.1.15,2013-08-07 19:38:00,
2013-08-07 15:43:00,78.0,74.8,29.97,SE,144,0.0,0.0,90,0.00,,,0.00,Wunderground v.1.15,2013-08-07 19:43:00,
2013-08-07 15:48:00,78.0,74.5,29.97,SE,144,0.0,1.0,89,0.00,,,0.00,Wunderground v.1.15,2013-08-07 19:48:00,
2013-08-07 15:53:00,77.9,74.7,29.96,SE,145,0.0,1.0,90,0.00,,,0.00,Wunderground v.1.15,2013-08-07 19:53:00,
2013-08-07 15:58:00,77.8,74.3,29.96,East,93,1.0,1.0,89,0.00,,,0.00,Wunderground v.1.15,2013-08-07 19:58:00,
2013-08-07 16:00:00,70.3,69.7,29.96,North,-999,0.0,0.0,98,0.00,,,-99.99,WeatherLink 6.0.0,2013-08-07 20:00:00,
2013-08-07 16:03:00,77.7,74.5,29.95,ESE,117,2.0,4.0,90,0.00,,,0.00,Wunderground v.1.15,2013-08-07 20:03:00,
2013-08-07 16:08:00,78.0,74.8,29.96,ESE,120,0.0,4.0,90,0.00,,,0.00,Wunderground v.1.15,2013-08-07 20:08:00,
2013-08-07 16:13:00,78.2,74.7,29.96,ESE,120,0.0,1.0,89,0.00,,,0.00,Wunderground v.1.15,2013-08-07 20:13:00,
2013-08-07 16:18:00,78.2,74.4,29.96,ESE,114,0.0,1.0,88,0.00,,,0.00,Wunderground v.1.15,2013-08-07 20:18:00,
2013-08-07 16:23:00,77.8,74.0,29.96,ESE,117,0.0,3.0,88,0.00,,,0.00,Wunderground v.1.15,2013-08-07 20:23:00,
2013-08-07 16:28:00,77.5,74.0,29.96,SE,125,0.0,3.0,89,0.00,,,0.00,Wunderground v.1.15,2013-08-07 20:28:00,
2013-08-07 16:30:00,70.8,70.2,29.97,SE,135,0.0,2.0,98,0.00,,,-99.99,WeatherLink 6.0.0,2013-08-07 20:30:00,
2013-08-07 16:33:00,77.3,74.1,29.96,SE,125,0.0,0.0,90,0.00,,,0.00,Wunderground v.1.15,2013-08-07 20:33:00,
2013-08-07 16:38:00,77.1,73.9,29.96,SE,125,0.0,0.0,90,0.00,,,0.00,Wunderground v.1.15,2013-08-07 20:38:00,
2013-08-07 16:43:00,77.0,73.5,29.96,SE,133,0.0,3.0,89,0.00,,,0.00,Wunderground v.1.15,2013-08-07 20:43:00,
2013-08-07 16:48:00,77.0,73.5,29.96,SE,133,0.0,3.0,89,0.00,,,0.00,Wunderground v.1.15,2013-08-07 20:48:00,
2013-08-07 16:53:00,77.0,73.5,29.96,SE,129,0.0,4.0,89,0.00,,,0.00,Wunderground v.1.15,2013-08-07 20:53:00,
2013-08-07 16:59:00,77.0,73.2,29.96,SSW,194,1.0,4.0,88,0.00,,,0.00,Wunderground v.1.15,2013-08-07 20:59:00,
2013-08-07 17:00:00,71.4,70.8,29.98,SE,135,0.0,4.0,98,0.00,,,-99.99,WeatherLink 6.0.0,2013-08-07 21:00:00,
2013-08-07 17:04:00,77.0,73.5,29.96,ESE,115,1.0,2.0,89,0.00,,,0.00,Wunderground v.1.15,2013-08-07 21:04:00,
2013-08-07 17:09:00,77.1,72.9,29.96,ESE,107,0.0,4.0,87,0.00,,,0.00,Wunderground v.1.15,2013-08-07 21:09:00,
2013-08-07 17:14:00,77.3,73.1,29.96,SSE,163,0.0,4.0,87,0.00,,,0.00,Wunderground v.1.15,2013-08-07 21:14:00,
2013-08-07 17:19:00,77.4,73.2,29.96,SSE,163,0.0,4.0,87,0.00,,,0.00,Wunderground v.1.15,2013-08-07 21:19:00,
2013-08-07 17:24:00,77.6,73.4,29.95,SSE,165,0.0,0.0,87,0.00,,,0.00,Wunderground v.1.15,2013-08-07 21:24:00,
2013-08-07 17:29:00,77.8,73.3,29.95,SE,137,0.0,4.0,86,0.00,,,0.00,Wunderground v.1.15,2013-08-07 21:29:00,
2013-08-07 17:30:00,72.6,71.7,29.98,ESE,112,0.0,4.0,97,0.00,,,-99.99,WeatherLink 6.0.0,2013-08-07 21:30:00,
2013-08-07 17:34:00,78.1,73.2,29.95,SE,137,0.0,0.0,85,0.00,,,0.00,Wunderground v.1.15,2013-08-07 21:34:00,
2013-08-07 17:39:00,78.2,73.3,29.95,SE,137,0.0,1.0,85,0.00,,,0.00,Wunderground v.1.15,2013-08-07 21:39:00,
2013-08-07 17:44:00,78.2,73.3,29.95,SE,133,0.0,2.0,85,0.00,,,0.00,Wunderground v.1.15,2013-08-07 21:44:00,
2013-08-07 17:49:00,78.2,73.7,29.95,SE,134,0.0,2.0,86,0.00,,,0.00,Wunderground v.1.15,2013-08-07 21:49:00,
2013-08-07 17:54:00,78.3,74.1,29.95,SE,134,0.0,0.0,87,0.00,,,0.00,Wunderground v.1.15,2013-08-07 21:54:00,
2013-08-07 17:59:00,78.3,74.1,29.95,SE,134,0.0,0.0,87,0.00,,,0.00,Wunderground v.1.15,2013-08-07 21:59:00,
2013-08-07 18:00:00,74.3,72.5,29.98,SE,135,0.0,3.0,94,0.00,,,-99.99,WeatherLink 6.0.0,2013-08-07 22:00:00,
2013-08-07 18:04:00,78.2,73.3,29.95,SE,141,0.0,1.0,85,0.00,,,0.00,Wunderground v.1.15,2013-08-07 22:04:00,
2013-08-07 18:09:00,78.0,73.8,29.95,SE,141,0.0,1.0,87,0.00,,,0.00,Wunderground v.1.15,2013-08-07 22:09:00,
2013-08-07 18:14:00,78.0,73.8,29.95,SE,141,0.0,0.0,87,0.00,,,0.00,Wunderground v.1.15,2013-08-07 22:14:00,
2013-08-07 18:19:00,77.8,73.6,29.95,SE,141,0.0,0.0,87,0.00,,,0.00,Wunderground v.1.15,2013-08-07 22:19:00,
2013-08-07 18:24:00,77.6,73.4,29.95,SE,141,0.0,1.0,87,0.00,,,0.00,Wunderground v.1.15,2013-08-07 22:24:00,
2013-08-07 18:29:00,77.4,73.6,29.95,SE,141,0.0,1.0,88,0.00,,,0.00,Wunderground v.1.15,2013-08-07 22:29:00,
2013-08-07 18:30:00,75.8,72.7,29.98,SE,135,0.0,3.0,90,0.00,,,-99.99,WeatherLink 6.0.0,2013-08-07 22:30:00,
2013-08-07 18:34:00,77.1,73.6,29.95,SE,141,0.0,1.0,89,0.00,,,0.00,Wunderground v.1.15,2013-08-07 22:34:00,
2013-08-07 18:39:00,76.9,73.4,29.95,SE,141,0.0,1.0,89,0.00,,,0.00,Wunderground v.1.15,2013-08-07 22:39:00,
2013-08-07 18:44:00,76.7,73.5,29.95,SE,141,0.0,0.0,90,0.00,,,0.00,Wunderground v.1.15,2013-08-07 22:44:00,
2013-08-07 18:49:00,76.5,73.7,29.95,SE,141,0.0,0.0,91,0.00,,,0.01,Wunderground v.1.15,2013-08-07 22:49:00,
2013-08-07 18:54:00,76.2,73.4,29.95,SE,141,0.0,0.0,91,0.00,,,0.01,Wunderground v.1.15,2013-08-07 22:54:00,
2013-08-07 18:59:00,75.9,73.4,29.95,SE,141,0.0,0.0,92,0.00,,,0.01,Wunderground v.1.15,2013-08-07 22:59:00,
2013-08-07 19:00:00,77.3,73.5,29.98,ESE,112,1.0,4.0,88,0.00,,,-99.99,WeatherLink 6.0.0,2013-08-07 23:00:00,
2013-08-07 19:04:00,75.7,73.5,29.95,SE,141,0.0,0.0,93,0.00,,,0.01,Wunderground v.1.15,2013-08-07 23:04:00,
2013-08-07 19:09:00,75.5,73.3,29.95,SE,141,0.0,0.0,93,0.00,,,0.01,Wunderground v.1.15,2013-08-07 23:09:00,
2013-08-07 19:14:00,75.4,73.2,29.95,SE,141,0.0,0.0,93,0.00,,,0.01,Wunderground v.1.15,2013-08-07 23:14:00,
2013-08-07 19:19:00,75.2,73.4,29.95,SE,141,0.0,0.0,94,0.00,,,0.01,Wunderground v.1.15,2013-08-07 23:19:00,
2013-08-07 19:24:00,75.2,73.4,29.95,SE,141,0.0,0.0,94,0.00,,,0.01,Wunderground v.1.15,2013-08-07 23:24:00,
2013-08-07 19:29:00,75.1,73.3,29.96,SE,141,0.0,0.0,94,0.00,,,0.01,Wunderground v.1.15,2013-08-07 23:29:00,
2013-08-07 19:30:00,79.2,73.9,29.98,ESE,112,1.0,6.0,84,0.00,,,-99.99,WeatherLink 6.0.0,2013-08-07 23:30:00,
2013-08-07 19:34:00,75.0,73.2,29.96,SE,141,0.0,0.0,94,0.00,,,0.01,Wunderground v.1.15,2013-08-07 23:34:00,
2013-08-07 19:39:00,74.9,73.1,29.96,SE,141,0.0,0.0,94,0.00,,,0.01,Wunderground v.1.15,2013-08-07 23:39:00,
2013-08-07 19:45:00,74.8,73.0,29.96,SE,141,0.0,0.0,94,0.00,,,0.01,Wunderground v.1.15,2013-08-07 23:45:00,
2013-08-07 19:50:00,74.7,73.2,29.96,SE,141,0.0,0.0,95,0.00,,,0.01,Wunderground v.1.15,2013-08-07 23:50:00,
2013-08-07 19:55:00,74.5,72.7,29.96,SE,141,0.0,0.0,94,0.00,,,0.01,Wunderground v.1.15,2013-08-07 23:55:00,
2013-08-07 20:00:00,74.4,72.9,29.96,SE,141,0.0,0.0,95,0.00,,,0.01,Wunderground v.1.15,2013-08-08 00:00:00,
2013-08-07 20:05:00,74.3,72.8,29.96,SE,141,0.0,0.0,95,0.00,,,0.01,Wunderground v.1.15,2013-08-08 00:05:00,
2013-08-07 20:10:00,74.2,72.7,29.95,SE,141,0.0,0.0,95,0.00,,,0.01,Wunderground v.1.15,2013-08-08 00:10:00,
2013-08-07 20:15:00,74.1,72.6,29.95,SE,141,0.0,0.0,95,0.00,,,0.01,Wunderground v.1.15,2013-08-08 00:15:00,
2013-08-07 20:20:00,74.0,72.5,29.95,SE,141,0.0,0.0,95,0.00,,,0.01,Wunderground v.1.15,2013-08-08 00:20:00,
2013-08-07 20:25:00,73.8,72.3,29.95,SE,141,0.0,0.0,95,0.00,,,0.01,Wunderground v.1.15,2013-08-08 00:25:00,
2013-08-07 20:30:00,73.8,72.3,29.95,SE,141,0.0,0.0,95,0.00,,,0.01,Wunderground v.1.15,2013-08-08 00:30:00,
2013-08-07 20:35:00,73.7,72.5,29.95,SE,141,0.0,0.0,96,0.00,,,0.01,Wunderground v.1.15,2013-08-08 00:35:00,
2013-08-07 20:40:00,73.6,72.4,29.95,SE,141,0.0,0.0,96,0.00,,,0.01,Wunderground v.1.15,2013-08-08 00:40:00,
2013-08-07 20:45:00,73.5,72.3,29.95,SE,141,0.0,0.0,96,0.00,,,0.01,Wunderground v.1.15,2013-08-08 00:45:00,
2013-08-07 20:50:00,73.4,72.2,29.95,SE,141,0.0,0.0,96,0.00,,,0.01,Wunderground v.1.15,2013-08-08 00:50:00,
2013-08-07 20:55:00,73.3,72.1,29.95,SE,141,0.0,0.0,96,0.00,,,0.01,Wunderground v.1.15,2013-08-08 00:55:00,
2013-08-07 21:00:00,73.2,72.0,29.96,SE,141,0.0,0.0,96,0.00,,,0.01,Wunderground v.1.15,2013-08-08 01:00:00,
2013-08-07 21:05:00,73.1,71.9,29.95,SE,141,0.0,0.0,96,0.00,,,0.01,Wunderground v.1.15,2013-08-08 01:05:00,
2013-08-07 21:10:00,73.0,71.8,29.95,SE,141,0.0,0.0,96,0.00,,,0.01,Wunderground v.1.15,2013-08-08 01:10:00,
2013-08-07 21:15:00,72.9,71.7,29.95,SE,141,0.0,0.0,96,0.00,,,0.01,Wunderground v.1.15,2013-08-08 01:15:00,
2013-08-07 21:20:00,72.9,71.7,29.95,SE,141,0.0,0.0,96,0.00,,,0.01,Wunderground v.1.15,2013-08-08 01:20:00,
2013-08-07 21:25:00,72.9,72.0,29.96,SE,141,0.0,0.0,97,0.00,,,0.01,Wunderground v.1.15,2013-08-08 01:25:00,
2013-08-07 21:30:00,72.8,71.9,29.96,SE,141,0.0,0.0,97,0.00,,,0.01,Wunderground v.1.15,2013-08-08 01:30:00,
2013-08-07 21:35:00,72.8,71.9,29.96,SE,141,0.0,0.0,97,0.00,,,0.01,Wunderground v.1.15,2013-08-08 01:35:00,
2013-08-07 21:40:00,72.7,71.8,29.96,SE,141,0.0,0.0,97,0.00,,,0.01,Wunderground v.1.15,2013-08-08 01:40:00,
2013-08-07 21:45:00,72.7,71.8,29.96,SE,141,0.0,0.0,97,0.00,,,0.01,Wunderground v.1.15,2013-08-08 01:45:00,
2013-08-07 21:50:00,72.7,71.8,29.96,SE,141,0.0,0.0,97,0.00,,,0.01,Wunderground v.1.15,2013-08-08 01:50:00,
2013-08-07 21:55:00,72.6,71.7,29.96,SE,141,0.0,0.0,97,0.00,,,0.01,Wunderground v.1.15,2013-08-08 01:55:00,
2013-08-07 22:00:00,72.6,71.7,29.96,SE,141,0.0,0.0,97,0.00,,,0.01,Wunderground v.1.15,2013-08-08 02:00:00,
2013-08-07 22:05:00,72.5,71.6,29.96,SE,141,0.0,0.0,97,0.00,,,0.01,Wunderground v.1.15,2013-08-08 02:05:00,
2013-08-07 22:10:00,72.5,71.6,29.97,SE,141,0.0,0.0,97,0.00,,,0.01,Wunderground v.1.15,2013-08-08 02:10:00,
2013-08-07 22:16:00,72.4,71.5,29.97,SE,141,0.0,0.0,97,0.00,,,0.01,Wunderground v.1.15,2013-08-08 02:16:00,
2013-08-07 22:21:00,72.4,71.5,29.96,SE,141,0.0,0.0,97,0.00,,,0.01,Wunderground v.1.15,2013-08-08 02:21:00,
2013-08-07 22:26:00,72.3,71.4,29.97,SE,141,0.0,0.0,97,0.00,,,0.01,Wunderground v.1.15,2013-08-08 02:26:00,
2013-08-07 22:30:00,85.7,76.5,29.95,ESE,112,1.0,10.0,74,0.00,,,-99.99,WeatherLink 6.0.0,2013-08-08 02:30:00,
2013-08-07 22:31:00,72.3,71.4,29.97,SE,141,0.0,0.0,97,0.00,,,0.01,Wunderground v.1.15,2013-08-08 02:31:00,
2013-08-07 22:36:00,72.2,71.3,29.97,SE,141,0.0,0.0,97,0.00,,,0.01,Wunderground v.1.15,2013-08-08 02:36:00,
2013-08-07 22:41:00,72.2,71.3,29.97,SE,141,0.0,0.0,97,0.00,,,0.01,Wunderground v.1.15,2013-08-08 02:41:00,
2013-08-07 22:46:00,72.2,71.3,29.98,SE,141,0.0,0.0,97,0.00,,,0.01,Wunderground v.1.15,2013-08-08 02:46:00,
2013-08-07 22:51:00,72.2,71.3,29.98,SE,141,0.0,0.0,97,0.00,,,0.01,Wunderground v.1.15,2013-08-08 02:51:00,
2013-08-07 22:56:00,72.2,71.3,29.98,SE,141,0.0,0.0,97,0.00,,,0.01,Wunderground v.1.15,2013-08-08 02:56:00,
2013-08-07 23:00:00,88.4,77.4,29.94,ESE,112,1.0,7.0,70,0.00,,,-99.99,WeatherLink 6.0.0,2013-08-08 03:00:00,
2013-08-07 23:01:00,72.2,71.3,29.98,SE,141,0.0,0.0,97,0.00,,,0.01,Wunderground v.1.15,2013-08-08 03:01:00,
2013-08-07 23:06:00,72.2,71.3,29.98,SE,141,0.0,0.0,97,0.00,,,0.01,Wunderground v.1.15,2013-08-08 03:06:00,
2013-08-07 23:11:00,72.1,71.2,29.98,SE,141,0.0,0.0,97,0.00,,,0.01,Wunderground v.1.15,2013-08-08 03:11:00,
2013-08-07 23:16:00,72.1,71.2,29.98,SE,141,0.0,0.0,97,0.00,,,0.01,Wunderground v.1.15,2013-08-08 03:16:00,
2013-08-07 23:21:00,72.1,71.2,29.98,SE,141,0.0,0.0,97,0.00,,,0.01,Wunderground v.1.15,2013-08-08 03:21:00,
2013-08-07 23:26:00,72.1,71.2,29.98,SE,141,0.0,0.0,97,0.00,,,0.01,Wunderground v.1.15,2013-08-08 03:26:00,
2013-08-07 23:30:00,87.1,76.1,29.93,ESE,112,1.0,10.0,70,0.00,,,-99.99,WeatherLink 6.0.0,2013-08-08 03:30:00,
2013-08-07 23:31:00,72.1,71.2,29.98,SE,141,0.0,0.0,97,0.00,,,0.01,Wunderground v.1.15,2013-08-08 03:31:00,
2013-08-07 23:36:00,72.1,71.5,29.98,SE,141,0.0,0.0,98,0.00,,,0.01,Wunderground v.1.15,2013-08-08 03:36:00,
2013-08-07 23:41:00,72.1,71.5,29.98,SE,141,0.0,0.0,98,0.00,,,0.01,Wunderground v.1.15,2013-08-08 03:41:00,
2013-08-07 23:46:00,72.0,71.4,29.98,SE,141,0.0,0.0,98,0.00,,,0.01,Wunderground v.1.15,2013-08-08 03:46:00,
2013-08-07 23:51:00,72.0,71.4,29.98,SE,141,0.0,0.0,98,0.00,,,0.01,Wunderground v.1.15,2013-08-08 03:51:00,
2013-08-07 23:56:00,72.0,71.4,29.98,SE,141,0.0,0.0,98,0.00,,,0.01,Wunderground v.1.15,2013-08-08 03:56:00,